TimeCDT,TemperatureF,Dew PointF,Humidity,Sea Level PressureIn,VisibilityMPH,Wind Direction,Wind SpeedMPH,Gust SpeedMPH,PrecipitationIn,Events,Conditions,WindDirDegrees,DateUTC
12:53 AM,33.1,27.0,78,30.40,10.0,Calm,Calm,-,N/A,,Clear,0,2012-10-27 05:53:00
1:53 AM,30.0,26.1,85,30.39,10.0,Calm,Calm,-,N/A,,Clear,0,2012-10-27 06:53:00
2:53 AM,28.0,26.1,92,30.41,10.0,Calm,Calm,-,N/A,,Clear,0,2012-10-27 07:53:00
3:53 AM,28.0,25.0,88,30.40,10.0,Calm,Calm,-,N/A,,Clear,0,2012-10-27 08:53:00
4:53 AM,28.9,26.1,89,30.38,10.0,North,3.5,-,N/A,,Clear,360,2012-10-27 09:53:00
5:53 AM,28.9,26.1,89,30.38,10.0,Calm,Calm,-,N/A,,Clear,0,2012-10-27 10:53:00
6:53 AM,28.9,26.1,89,30.41,10.0,Calm,Calm,-,N/A,,Clear,0,2012-10-27 11:53:00
7:53 AM,28.0,26.1,92,30.40,10.0,Calm,Calm,-,N/A,,Clear,0,2012-10-27 12:53:00
8:53 AM,34.0,30.0,85,30.43,10.0,Calm,Calm,-,N/A,,Clear,0,2012-10-27 13:53:00
10:19 AM,41.0,30.2,65,30.42,10.0,NE,4.6,-,N/A,,Partly Cloudy,50,2012-10-27 15:19:00
10:53 AM,42.1,30.0,62,30.42,10.0,Variable,4.6,-,N/A,,Clear,0,2012-10-27 15:53:00
11:53 AM,46.0,28.9,51,30.40,10.0,NE,6.9,-,N/A,,Clear,40,2012-10-27 16:53:00
12:53 PM,48.0,28.0,46,30.36,10.0,NNE,9.2,-,N/A,,Clear,20,2012-10-27 17:53:00
1:53 PM,50.0,28.0,43,30.30,10.0,ENE,3.5,-,N/A,,Clear,60,2012-10-27 18:53:00
2:53 PM,52.0,27.0,38,30.28,10.0,NE,6.9,-,N/A,,Clear,50,2012-10-27 19:53:00
3:53 PM,51.1,26.1,38,30.26,10.0,Variable,3.5,-,N/A,,Clear,0,2012-10-27 20:53:00
4:53 PM,51.1,26.1,38,30.25,10.0,ENE,6.9,-,N/A,,Clear,70,2012-10-27 21:53:00
5:53 PM,48.0,27.0,44,30.25,10.0,NNE,3.5,-,N/A,,Clear,30,2012-10-27 22:53:00
6:53 PM,42.1,30.0,62,30.25,10.0,Calm,Calm,-,N/A,,Clear,0,2012-10-27 23:53:00
7:53 PM,36.0,28.0,73,30.28,10.0,Calm,Calm,-,N/A,,Clear,0,2012-10-28 00:53:00
8:53 PM,33.1,28.0,82,30.28,10.0,Calm,Calm,-,N/A,,Partly Cloudy,0,2012-10-28 01:53:00
9:53 PM,30.0,27.0,88,30.29,10.0,Calm,Calm,-,N/A,,Clear,0,2012-10-28 02:53:00
11:53 PM,28.9,27.0,92,30.31,10.0,Calm,Calm,-,N/A,,Clear,0,2012-10-28 04:53:00